Location: downtown San Diego
(32.7310°N, 117.1990°W)
Time: 23:49:30
(UTC-08:00)

CZ-2C R/B - Pass Details

Date: 14 June 2018
Orbit: 784 x 871 km, 98.3° (Epoch: 15 November)

Event Time Altitude Azimuth Distance (km) Brightness Sun altitude
Rises 22:22:22 0° 24° (NNE) 3,414 6.2 -23.9°
Reaches altitude 10° 22:25:01 10° 34° (NE) 2,462 5.3 -24.2°
Enters shadow 22:28:45 30° 73° (ENE) 1,462 3.7 -24.7°
